Погода Остров Котельный

Погода Остров Котельный : погода сейчас, прогноз погоды и архив. Всё, что Вы хотите узнать о погоде Остров Котельный!

Поиск расширенной информации на нашем сайте:

Другие новости

Новости СМИ2

Главная страница сайта

Новости сайта

03.07.2017

Напоминаем, что на нашем специализированном сайте Метеоцентр.Азия вы можете получить высокодетализированные автоматические прогнозы погоды по пунктам России, СНГ и мира в авиационном формате (включающие направление и скорость ветра, видимость, явления погоды, количество и форму облачности, нижнюю и верхнюю границу облачности).


Погода Остров Котельный - сегодня

Время (UTC), дата Ветер
(°,м/с) 
Видим.   Явления Облачность Т
(°С)
Тd
(°С)
f(%) Тe
(°С)
Pmin
(гПа)
dP
(гПа)
Po
(мм)
O2
(г/м3)
Тmin Tmax R s Состояние
почвы
18 20.06.18 260 (З) 20000 м    8/0 средняя 
[Ac trans]
+5.4 +4 91 +4  1010.4  0.4  756  298           
21 20.06.18 020 (С) 20000 м    8/0 средняя 
[Ac trans]
+5 +3.8 92 +4  1011.1  0.7  757  299           
00 21.06.18 050 (СВ) 0500 м  туман  ?/?  
+2.1 +1.8 98 1011.6  0.4  757  303  +2        мокрая 
03 21.06.18 050 (СВ) 0500 м  туман  ?/?  
+2 +1.7 98 -1  1012.6  758  303  +1.8         
06 21.06.18 070 (В) 4000 м  дымка{туман}  10/10 300 м 
[St]
+1.9 +1.4 96 -1  1013.4  0.8  759  303           
03 22.06.18 090 (В) 4000 м  дымка  10/10 300 м 
[St]
+2.8 +2.3 97 1014.8  -0.3  760  303           
06 22.06.18 080 (В) 20000 м    10/10 300 м 
[Sc]
+3.2 +2.7 97 +1  1014.8  760  302           
09 22.06.18 110 (В) 20000 м    10/10 300 м 
[Sc]
+3.1 +2.6 97 +1  1015.3  0.5  760  302           
12 22.06.18 110 (В) 20000 м    10/10 300 м 
[St]
+1.8 +1.3 96 -1  1016.3  761  304    +3.9       
18 22.06.18 140 (ЮВ) 4000 м  дымка  10/10 300 м 
[St]
+0.2 -0.4 96 -2  1016.6  761  306           
21 22.06.18 130 (ЮВ) 20000 м    10/10 300 м 
[Sc]
+1.3 +0.5 94 +1  1016.6  761  305           
00 23.06.18 160 (Ю) 20000 м    10/10 300 м 
[Sc]
+2.7 +1.9 94 +2  1016.6  761  303  -0.1        мокрая 
03 23.06.18 050 (СВ) 20000 м    8/8 300 м 
[Sc]
+4.4 +3.4 93 +3  1016.2  -0.4  761  301           
06 23.06.18 350 (С) 20000 м    4/4 300 м 
[Sc]
+3.2 +2.4 94 +2  1016.2  761  303           
09 23.06.18 360 (С) 20000 м    8/8 300 м 
[Sc]
+1.6 +0.8 94 +1  1016.5  0.3  761  305           
12 23.06.18 090 (В) 20000 м    10/10 300 м 
[Sc]
+2.1 +1.3 94 +1  1016.7  0.2  761  304    +7.2       
15 23.06.18 110 (В) 20000 м    10/10 300 м 
[Sc]
+4.9 +4 94 +5  1015.7  -1  760  300           
18 23.06.18 200 (Ю) 4000 м  дымка  10/10 300 м 
[Sc]
+5.4 +4.9 97 +4  1015.7  760  300           
21 23.06.18 160 (Ю) 10 км  слаб. дождь  10/10 300 м 
[Sc]
+3.5 +2.8 95 +3  1014.8  -0.9  760  302           
03 24.06.18 130 (ЮВ) 20000 м    10/10 600 м 
[Sc]
+7.6 +6.7 94 +8  1013.4  -0.9  759  296           
06 24.06.18 070 (В) 10 км  слаб. дождь  10/0 средняя 
[Ac As]
+4.2 +3.7 97 +4  1012.7  -0.7  758  300           
09 24.06.18 070 (В) 20000 м  {дождь}  9/0 средняя 
[Ac trans]
+4.8 +4.3 97 +3  1012.3  -0.4  758  299           
00 25.06.18 090 (В) 11-13{14}  20000 м    9/9 300 м 
[Sc]
+1.8 -0.1 87 -3  1018.4  762  305  -0.3        мокрая 
09 25.06.18 080 (В) 6{10}  20000 м    10/10 300 м 
[Sc]
+1.4 -0.3 88 -2  1021.8  765  307           
12 25.06.18 070 (В) 20000 м    10/10 300 м 
[Sc]
+0.2 -0.9 92 -2  1022.4  0.6  765  308    +3       
Время (UTC), дата Ветер
(°,м/с) 
Видим.   Явления Облачность Т
(°С)
Тd
(°С)
f(%) Тe
(°С)
Pmin
(гПа)
dP
(гПа)
Po
(мм)
O2
(г/м3)
Тmin Tmax R s Состояние
почвы

Для получения пояснительной информации подведите курсор к названию столбца.

ПОГОДА Остров Котельный - архив

Всё, что Вы хотите узнать о погоде Остров Котельный - удобно и подробно!

Выберите нужную дату (начиная с 1 января 2015* года) и нажмите кнопку "Найти".
Будут отображены архивные сводки погоды по пункту Остров Котельный, начиная с указанной даты.


Отображать данные в формате CSV (для использования в таблицах Excel)


Внимание! Наш архив погоды предназначен исключительно для личного некоммерческого использования в познавательных целях. Если Вам необходимы официальные справки о состоянии погоды (для производственных, юридических, коммерческих и т.п. целей), обращайтесь в органы Росгидромета.

*Примечание: данная дата относится к архиву по метеостанциям СССР (Россия, СНГ, Балтия).
Архив по метеостанциям Зарубежной Европы и Азии (кроме Китая) хранится 10 дней, по другим регионам земного шара (Китай, Африка, Америка, Австралия, Океания) - 1 день.

Остров Котельный - район местоположения метеостанции


Название, широта, долгота, высота метеостанции:
Остров Котельный 76°ш. 137.9°д. 8 м над ур. моря [Российская Федерация]

Дополнительная информация

В oтличие oт бoльшинства пoгoдных сайтoв мы публикуем пoдрoбную метеoинфoрмацию в детальнoм прoфессиoнальнoм фoрмате.

Характеристики температуры и влажнoсти вoздуха измеряются на высoте 2 м в тени вдали oт зданий и деревьев.
Скoрoсть ветра измеряется на высoте 10 м (на урoвне рoста челoвека скoрoсть ветра ниже в 1.5-2 раза). Если метеoстанция нахoдится в гoрoде или в лесу, тo скoрoсть ветра занижена на 2-4 м/с пo сравнению с oткрытым местoм. Скoрoсть ветра над акватoриями крупных рек и oзёр, а также на вершинах хoлмoв на 2-5 м/с выше, чем в oбычных услoвиях.
Атмoсфернoе давление в разных тoчках местнoсти мoжет значительнo oтличаться oт давления на метеoстанции, в зависимoсти oт услoвий рельефа (при пoдъёме на 10 м давление пoнижается примернo на 1 мм рт.ст.).